User: anonymous   Login
Location: ??
(35.5052°N, 139.7262°E)
Time: 17:03:10
(UTC+00:00)
Language:

Cosmos 968 Rocket - Orbit

View from above orbital plane
View from above orbital plane
View from above satellite
View from above satellite

Ground track
Ground track

The orbit data is extracted from the following two-line orbital elements,

1 10521U 77119B   21259.07781246  .00000055  00000-0  25462-4 0  9991
2 10521  74.0254 274.5629 0022376 269.0955  90.7637 14.40837964295750
Epoch (UTC): 16 September 2021 01:52:02
Eccentricity: 0.0022376
inclination: 74.0254°
perigee height: 740 km
apogee height: 771 km
right ascension of ascending node: 274.5629°
argument of perigee: 269.0955°
revolutions per day: 14.40837964
mean anomaly at epoch: 90.7637°
orbit number at epoch: 29575

The dashed part of the orbit path shows where the satellite is in the earth's shadow,  

DLR